User: anonymous   Login
Location: S�o Paulo
(23.5330°S, 46.6170°W)
Time: 11:42:42
(UTC-03:00)
Language:

ISS - Orbit

View from above orbital plane
View from above orbital plane
View from above satellite
View from above satellite

Ground track
Ground track

The orbit data is extracted from the following two-line orbital elements,

1 25544U 98067A   17203.78796354  .00016717  00000-0  10270-3 0  9043
2 25544  51.6382 220.8694 0005953  57.0600 303.1125 15.54222454 27286
Epoch (UTC): 22 July 2017 18:54:40
Eccentricity: 0.0005953
inclination: 51.6382°
perigee height: 400 km
apogee height: 408 km
right ascension of ascending node: 220.8694°
argument of perigee: 57.0600°
revolutions per day: 15.54222454
mean anomaly at epoch: 303.1125°
orbit number at epoch: 2728

The dashed part of the orbit path shows where the satellite is in the earth's shadow,  

DLR